STARLINK-34647, 64904

Orbit data source: Space-Track

STARLINK-34647, 64904 is a payload satellite owned by SpaceX/Seattle (US) in LEO that was launched on Sat, 26 Jul 2025 UTC via an FALCON 9 launch vehicle from the Air Force Eastern Test Range (AFETR). Payload-class satellites include a variety of spacecraft equipped with specific instruments for various scientific and technological missions. These include communications satellites like Starlink; space stations such as the ISS; scientific satellites like the Hubble; Earth observation satellites from companies like Planet Labs, Umbra, and HawkEye 360; GPS; miniature CubeSats for education and research; and military/defense satellites.

Loading next visibility...
Identifier
64904, 2025-157A
Orbit
LEO
Country
Flag of USUS
Related business
Manufacturer
SpaceX/Seattle
Mission
Operational Commercial Communications
Bus & Motor
STARLINK V2MO, Unknown motor
Mass
575 kg wet, ~530 kg dry
Launch date (UTC)
2025-07-26 (10 months ago)
Launch vehicle
FALCON 9
Launch site
Air Force Eastern Test Range (AFETR)
Object type
Payload
Rocket body
Debris
Shape & HBR
Box + 2 Pan, 17.7 m
Radar Cross Section
36.964 m², Large (>1 m²)

Expand to show TLE details & history
Last TLE update: 17 hours ago

TLE from 17 hours ago
0 STARLINK-34647
1 64904U 25157A   26145.26144086  .00407332  00000-0  12382-1 0  9998
2 64904  53.1599 350.2642 0002842 172.9125 187.1917 15.31841428 47835
Epoch: 2026-05-25T06:16Z
TLE epoch observation values (Epoch: 2026-05-25T06:16:28.490Z)
Latitude
-0.00002°
Longitude
13.2937°
Altitude
473.15 km
Speed
7.63 km/s
True Right ascension
23h 21m 03s
True Declination
0° 00' 00"
Sunlit
Object was in daylight at epoch
Visualization orbit readout
Latitude
Unknown
Longitude
Unknown
Altitude
Unknown
Speed
Unknown
Apparent Right ascension
Unknown
Apparent Declination
Unknown
Sunlit
N/A
Visualization observer readout
Local Sidereal Time
08:00:49
Azimuth
Unknown
Elevation
Unknown
Doppler factor
Unknown
Orbital elements
Apogee altitude
472.521 km
Perigee altitude
468.629 km
Semi-major axis
6,848.712 km
Eccentricity
0.00028
Inclination
53.1599°
RAAN
350.2642°
Arg. of periapsis
172.9125°
True anomaly
187.18762°
Mean anomaly
187.1917°
Eccentric anomaly
187.18966°
Mean motion
3.82939 °/min
Orbital period
94.01 mins
BSTAR
0.012382
Loading maneuver chart data...
Computing Atmospheric mass density...
Loading historical data...
Loading historical data...
Loading historical data...
Loading historical data...
Loading historical data...
Loading historical data...
Loading historical data...

Documentation

Showing up to 5 results
|